CONNECTA T2.1 (56210 NORAD) Tracking and Keplerian Element Data

This shows tracking and keplerian element data for the satellite.

Feedback or suggestion? Click here.




ElementValue
Catalog56210
NameCONNECTA T2.1
Epoch Orbit2099
Epoch Day239.15326858
Epoch Year2023
RAAN133.1792
Inclination97.3897
Eccentricity0.0015229
Argument of Perigee112.542
Mean Anonmoly247.7431
Mean Motion15.2492949
Decay Rate7.247E-05
L11 56210U 23054AJ 23239.15326858 .00007247 00000+0 29296-3 0 9995
L22 56210 97.3897 133.1792 0015229 112.5420 247.7431 15.24929490 20992



Live tracking and technical data element details for CONNECTA T2.1 (NORAD 56210). CONNECTA T2.1 can be tracked NOW for your location showing map with azimuth and elevation plus other details from your city location.







IsCatalogInMostPopularTable: catalog: 56210, numindb: 14
Update: records affected: 1



GetName: 56210 CONNECTA T2.1

Hit Count: updated at: Thu, 28 Sep 2023 05:28:19 GMT